Regional Weather Roundup
Issued by NWS Sterling, VA

Home | Current Version | Previous Version | Graphics & Text | Print | Product List | Glossary On
Versions: 1 2 3 4 5 6 7 8 9 10 11 12 13 14 15 16 17 18 19 20 21 22 23 24 25 26 27 28 29 30 31 32 33 34 35 36 37 38 39 40 41 42 43 44 45 46 47 48 49 50
000
ASUS41 KLWX 050810
RWRLWX

REGIONAL WEATHER ROUNDUP
NATIONAL WEATHER SERVICE BALTIMORE MD/WASHINGTON DC
300 AM EST THU MAR 05 2015

Note: "FAIR" indicates few or no clouds below 12,000 feet
with no significant weather and/or obstructions to visibility.
 TC=TEMPERATURE CELSIUS

 * =Non NWS site. Station does not report precipitation (e.g. rain,
    snow, etc.), thunder, or fog.

DCZ001-MDZ009-015-VAZ040>042-051-053>054-050900-
WASHINGTON METRO

CITY           SKY/WX    TMP DP  RH WIND       PRES   REMARKS
WASHINGTON NAT LGT RAIN  43  37  81 NW8       29.99F
DULLES         LGT RAIN  37  34  89 N10       29.98S
ANDREWS AFB    LGT RAIN  40  39  99 N10       29.96F
FT BELVOIR     LGT RAIN  39  37  93 N7        29.98F
QUANTICO       LGT RAIN  40  36  86 NE10      29.99R
COLLEGE PARK*  CLOUDY    39  37  93 N6        29.99R
LEESBURG*      LGT RAIN  37  36  93 N8        29.98F
MANASSAS*      CLOUDY    37  37 100 N12       29.97F
GAITHERSBURG*  CLOUDY    36  34  93 NW7       30.01S

$$

MDZ006>007-011-014-050900-
BALTIMORE METRO

CITY           SKY/WX    TMP DP  RH WIND       PRES   REMARKS
BWI AIRPORT    LGT RAIN  38  37  97 N3        29.96F
MD SCIENCE CTR   N/A     40  37  89 MISG      29.98S
MARTIN STATE   DRIZZLE   37  37 100 NW5       29.99S
ANNAPOLIS      CLOUDY    37  35  92 NW7       29.96F
FORT MEADE*    CLOUDY    37  36  93 NW3       30.01S

$$

MDZ012-015-019>023-050900-
MARYLAND EASTERN SHORE

CITY           SKY/WX    TMP DP  RH WIND       PRES   REMARKS
OCEAN CITY     CLOUDY    42  42 100 N13       29.94R
SALISBURY      LGT RAIN  45  42  89 N10       29.95R FOG
BAY BRIDGE AP*   N/A     37  37 100 N6        29.96F FOG
CAMBRIDGE*     CLOUDY    41  39  93 N7        29.94F
EASTON*        LGT RAIN  40  40 100 NE10      29.98F

$$

MDZ017>025-050900-
SOUTHERN MARYLAND

CITY           SKY/WX    TMP DP  RH WIND       PRES   REMARKS
PATUXENT RIVER LGT RAIN  41  39  93 N12       29.94F FOG
ST INIGOES     LGT RAIN  43  39  86 N10G18    29.93S
LEONARDTOWN*   CLOUDY    41  39  93 N3        29.96F

$$

MDZ003>005-050900-
NORTH CENTRAL MARYLAND

CITY           SKY/WX    TMP DP  RH WIND       PRES   REMARKS
FREDERICK*     LGT RAIN  37  32  81 NW6       30.02S
HAGERSTOWN APT CLOUDY    35  32  88 NW6       29.98S FOG
WESTMINSTER*   LGT SNOW  34  32  93 NW6       29.98R

$$

MDZ501>502-050900-
WESTERN MARYLAND

CITY           SKY/WX    TMP DP  RH WIND       PRES   REMARKS
OAKLAND*       MOCLDY    23 N/A N/A NW9G17    29.95S FOG     WCI  13
CUMBERLAND*    MOCLDY    36  27  69 NW10G18   30.07R WCI  28

$$

VAZ025>031-050900-
SHENANDOAH VALLEY

CITY           SKY/WX    TMP DP  RH WIND       PRES   REMARKS
WINCHESTER*    DRIZZLE   36  32  87 NW7       29.98F
FRONT ROYAL*   CLOUDY    36  36 100 NE3       29.97S
LURAY*         LGT RAIN  39  39 100 NE8       29.96S
NEW MARKET*    CLOUDY    37  35  92 N6        29.97R
STAUNTON*      LGT RAIN  42  41  96 N7        29.95R
WAYNESBORO*    CLOUDY    42  42 100 N5        29.92S

$$

WVZ021-048>050-054>055-050900-
EASTERN WEST VIRGINIA PANHANDLE

CITY           SKY/WX    TMP DP  RH WIND       PRES   REMARKS
MARTINSBURG    LGT RAIN  37  32  82 N6        30.00S
PETERSBURG*    NOT AVBL

$$

VAZ036>039-050-050900-
CENTRAL FOOTHILLS

CITY           SKY/WX    TMP DP  RH WIND       PRES   REMARKS
CHARLOTTESVILL LGT RAIN  43  41  93 NE9       29.93S FOG
CULPEPER*      LGT RAIN  39  39 100 N9        29.96F
ORANGE*        DRIZZLE   41  41 100 N6        29.97R
GORDONSVILLE*  CLOUDY    41  41  99 CALM      29.95R FOG
WARRENTON*     DRIZZLE   40  40 100 NE5       29.96F

$$

VAZ055>057-050900-
NORTH AND CENTRAL PIEDMONT

CITY           SKY/WX    TMP DP  RH WIND       PRES   REMARKS
FREDERICKSBRG* RAIN      42  42 100 N6        29.96F
STAFFORD*      DRIZZLE   39  32  75 N8        30.01S

$$

NCZ024-NYZ072-PAZ021-071-VAZ022-071-050900-
OTHER REGIONAL OBSERVATIONS

CITY           SKY/WX    TMP DP  RH WIND       PRES   REMARKS
NEW YORK CITY  MIX PCPN  36  33  89 NW9G16    29.94R WCI  29
PHILADELPHIA   LGT RAIN  38  35  89 NW8       29.95F
PITTSBURGH     FLURRIES  23  14  68 N18G28    30.11R WCI   9
ROANOKE        LGT RAIN  45  43  93 N7        29.95S FOG
RICHMOND       LGT RAIN  48  45  89 NE14      29.92S FOG
RALEIGH        LGT RAIN  65  58  78 SW15G25   29.86F

$$

ANZ530>537-050900-
MARINE OBSERVATIONS

STATION/POSITION TIME  TEMP    WIND        PRES
                       AIR SEA DIR/SP/G
                 (UTC) (F)     (DEG/KT/KT) (MB)
THOMAS PT LIGHT  0800   40 32   10/  8/  8 1015.6F
BALT KEY BRIDGE  0700   41     310/  5/  6   N/A
COVE POINT       0700   36     360/ 14/ 16   N/A
LEWISETTA        0700   42 34  340/  3/  5   N/A
SOLOMONS ISLAND  0700      33                N/A

$$




USA.gov is the U.S. government's official web portal to all federal, state and local government web resources and services.